Time,TemperatureF,DewpointF,PressureIn,WindDirection,WindDirectionDegrees,WindSpeedMPH,WindSpeedGustMPH,Humidity,HourlyPrecipIn,Conditions,Clouds,dailyrainin,SoftwareType,DateUTC
2013-03-07 00:08:00,34.9,27.0,30.21,SSW,213,3.0,8.0,72,0.00,,,0.01,weatherlink.com 1.10,2013-03-07 05:08:00,
2013-03-07 00:23:00,34.9,27.0,30.21,SW,228,4.0,9.0,72,0.00,,,0.01,weatherlink.com 1.10,2013-03-07 05:23:00,
2013-03-07 00:38:00,34.9,27.0,30.22,SW,230,6.0,8.0,72,0.00,,,0.01,weatherlink.com 1.10,2013-03-07 05:38:00,
2013-03-07 00:53:00,34.9,27.0,30.22,South,188,7.0,10.0,72,0.00,,,0.01,weatherlink.com 1.10,2013-03-07 05:53:00,
2013-03-07 01:08:00,34.8,27.0,30.22,SW,236,5.0,10.0,72,0.00,,,0.01,weatherlink.com 1.10,2013-03-07 06:08:00,
2013-03-07 01:23:00,34.7,27.0,30.22,WNW,286,3.0,9.0,72,0.00,,,0.01,weatherlink.com 1.10,2013-03-07 06:23:00,
2013-03-07 01:38:00,34.7,27.0,30.21,WSW,240,4.0,9.0,72,0.00,,,0.01,weatherlink.com 1.10,2013-03-07 06:38:00,
2013-03-07 01:53:00,34.6,26.0,30.21,NNW,327,7.0,11.0,72,0.00,,,0.01,weatherlink.com 1.10,2013-03-07 06:53:00,
2013-03-07 02:08:00,34.5,26.0,30.20,WSW,258,3.0,12.0,72,0.00,,,0.01,weatherlink.com 1.10,2013-03-07 07:08:00,
2013-03-07 02:23:00,34.4,26.0,30.20,WNW,285,8.0,9.0,72,0.00,,,0.01,weatherlink.com 1.10,2013-03-07 07:23:00,
2013-03-07 02:38:00,34.4,26.0,30.20,West,276,4.0,14.0,71,0.00,,,0.01,weatherlink.com 1.10,2013-03-07 07:38:00,
2013-03-07 02:54:00,34.3,26.0,30.20,NW,322,4.0,12.0,71,0.00,,,0.01,weatherlink.com 1.10,2013-03-07 07:54:00,
2013-03-07 03:09:00,34.2,26.0,30.19,SSW,213,2.0,10.0,71,0.00,,,0.01,weatherlink.com 1.10,2013-03-07 08:09:00,
2013-03-07 03:24:00,34.0,26.0,30.19,South,190,2.0,9.0,72,0.00,,,0.01,weatherlink.com 1.10,2013-03-07 08:24:00,
2013-03-07 03:39:00,33.9,26.0,30.19,West,273,9.0,15.0,73,0.00,,,0.01,weatherlink.com 1.10,2013-03-07 08:39:00,
2013-03-07 03:54:00,33.7,26.0,30.20,NNE,14,5.0,9.0,74,0.00,,,0.01,weatherlink.com 1.10,2013-03-07 08:54:00,
2013-03-07 04:09:00,33.3,27.0,30.20,West,279,6.0,15.0,76,0.00,,,0.01,weatherlink.com 1.10,2013-03-07 09:09:00,
2013-03-07 04:24:00,33.1,26.0,30.21,West,265,5.0,7.0,76,0.00,,,0.01,weatherlink.com 1.10,2013-03-07 09:24:00,
2013-03-07 04:39:00,33.1,26.0,30.21,West,267,6.0,10.0,76,0.00,,,0.01,weatherlink.com 1.10,2013-03-07 09:39:00,
2013-03-07 04:54:00,33.0,26.0,30.22,West,276,9.0,13.0,76,0.00,,,0.01,weatherlink.com 1.10,2013-03-07 09:54:00,
2013-03-07 05:09:00,32.4,27.0,30.23,West,275,6.0,11.0,80,0.00,,,0.01,weatherlink.com 1.10,2013-03-07 10:09:00,
2013-03-07 05:24:00,31.8,28.0,30.23,WSW,237,3.0,10.0,84,0.00,,,0.01,weatherlink.com 1.10,2013-03-07 10:24:00,
2013-03-07 05:39:00,31.4,27.0,30.23,SW,229,3.0,12.0,85,0.00,,,0.01,weatherlink.com 1.10,2013-03-07 10:39:00,
2013-03-07 05:54:00,31.1,27.0,30.24,SW,236,3.0,12.0,86,0.00,,,0.01,weatherlink.com 1.10,2013-03-07 10:54:00,
2013-03-07 06:09:00,31.3,27.0,30.25,WSW,238,8.0,14.0,84,0.00,,,0.01,weatherlink.com 1.10,2013-03-07 11:09:00,
2013-03-07 06:24:00,31.5,27.0,30.24,WSW,250,8.0,11.0,83,0.00,,,0.01,weatherlink.com 1.10,2013-03-07 11:24:00,
2013-03-07 06:39:00,31.5,27.0,30.24,SSW,196,5.0,10.0,83,0.00,,,0.01,weatherlink.com 1.10,2013-03-07 11:39:00,
2013-03-07 06:54:00,31.6,27.0,30.25,WSW,255,5.0,13.0,82,0.00,,,0.01,weatherlink.com 1.10,2013-03-07 11:54:00,
2013-03-07 07:09:00,31.4,27.0,30.25,SW,231,3.0,11.0,83,0.00,,,0.01,weatherlink.com 1.10,2013-03-07 12:09:00,
2013-03-07 07:24:00,31.3,27.0,30.25,WNW,290,1.0,11.0,85,0.00,,,0.01,weatherlink.com 1.10,2013-03-07 12:24:00,
2013-03-07 07:39:00,31.2,27.0,30.25,SW,236,6.0,11.0,84,0.00,,,0.01,weatherlink.com 1.10,2013-03-07 12:39:00,
2013-03-07 07:54:00,31.4,27.0,30.26,WNW,292,5.0,7.0,85,0.00,,,0.01,weatherlink.com 1.10,2013-03-07 12:54:00,
2013-03-07 08:09:00,31.7,27.0,30.26,WSW,244,4.0,11.0,82,0.00,,,0.01,weatherlink.com 1.10,2013-03-07 13:09:00,
2013-03-07 08:24:00,32.0,27.0,30.27,WSW,254,4.0,11.0,83,0.00,,,0.01,weatherlink.com 1.10,2013-03-07 13:24:00,
2013-03-07 09:09:00,31.8,28.0,30.27,ENE,57,2.0,11.0,87,0.00,,,0.01,weatherlink.com 1.10,2013-03-07 14:09:00,
2013-03-07 09:24:00,32.0,28.0,30.27,West,271,7.0,12.0,85,0.00,,,0.01,weatherlink.com 1.10,2013-03-07 14:24:00,
2013-03-07 09:39:00,32.4,29.0,30.27,West,275,6.0,10.0,86,0.00,,,0.01,weatherlink.com 1.10,2013-03-07 14:39:00,
2013-03-07 09:54:00,32.9,29.0,30.27,SSW,210,4.0,12.0,84,0.00,,,0.00,weatherlink.com 1.10,2013-03-07 14:54:00,
2013-03-07 10:09:00,33.2,29.0,30.27,NW,313,6.0,12.0,83,0.00,,,0.00,weatherlink.com 1.10,2013-03-07 15:09:00,
2013-03-07 10:24:00,33.5,30.0,30.27,West,273,3.0,7.0,86,0.00,,,0.00,weatherlink.com 1.10,2013-03-07 15:24:00,
2013-03-07 10:39:00,33.3,29.0,30.27,WNW,286,2.0,10.0,85,0.00,,,0.00,weatherlink.com 1.10,2013-03-07 15:39:00,
2013-03-07 10:54:00,33.4,30.0,30.27,WNW,292,5.0,12.0,87,0.00,,,0.00,weatherlink.com 1.10,2013-03-07 15:54:00,
2013-03-07 11:09:00,33.8,30.0,30.27,SW,221,5.0,8.0,86,0.00,,,0.00,weatherlink.com 1.10,2013-03-07 16:09:00,
2013-03-07 11:24:00,33.4,29.0,30.28,West,272,7.0,13.0,85,0.00,,,0.00,weatherlink.com 1.10,2013-03-07 16:24:00,
2013-03-07 11:39:00,33.0,30.0,30.27,SW,225,4.0,9.0,87,0.01,,,0.01,weatherlink.com 1.10,2013-03-07 16:39:00,
2013-03-07 11:54:00,33.3,30.0,30.27,SSW,211,3.0,7.0,88,0.01,,,0.01,weatherlink.com 1.10,2013-03-07 16:54:00,
2013-03-07 12:09:00,33.3,30.0,30.27,WSW,254,6.0,12.0,89,0.01,,,0.01,weatherlink.com 1.10,2013-03-07 17:09:00,
2013-03-07 12:24:00,33.7,30.0,30.27,West,261,5.0,7.0,87,0.00,,,0.01,weatherlink.com 1.10,2013-03-07 17:24:00,
2013-03-07 12:39:00,34.0,31.0,30.26,SSW,196,3.0,6.0,88,0.00,,,0.01,weatherlink.com 1.10,2013-03-07 17:39:00,
2013-03-07 12:54:00,34.1,30.0,30.26,SSW,200,5.0,14.0,86,0.00,,,0.01,weatherlink.com 1.10,2013-03-07 17:54:00,
2013-03-07 13:10:00,33.9,31.0,30.26,SW,236,3.0,10.0,89,0.00,,,0.01,weatherlink.com 1.10,2013-03-07 18:10:00,
2013-03-07 13:24:00,33.0,30.0,30.26,SW,232,3.0,12.0,88,0.00,,,0.01,weatherlink.com 1.10,2013-03-07 18:24:00,
2013-03-07 13:40:00,32.9,31.0,30.27,WSW,244,3.0,7.0,91,0.00,,,0.01,weatherlink.com 1.10,2013-03-07 18:40:00,
2013-03-07 13:55:00,32.8,31.0,30.26,West,265,5.0,7.0,92,0.01,,,0.02,weatherlink.com 1.10,2013-03-07 18:55:00,
2013-03-07 14:10:00,32.6,31.0,30.27,SSW,205,4.0,7.0,92,0.01,,,0.02,weatherlink.com 1.10,2013-03-07 19:10:00,
2013-03-07 14:25:00,32.4,30.0,30.27,WSW,255,5.0,17.0,92,0.01,,,0.02,weatherlink.com 1.10,2013-03-07 19:25:00,
2013-03-07 14:40:00,32.1,30.0,30.28,South,191,2.0,12.0,92,0.01,,,0.02,weatherlink.com 1.10,2013-03-07 19:40:00,
2013-03-07 14:55:00,31.9,30.0,30.28,SW,217,3.0,8.0,93,0.01,,,0.03,weatherlink.com 1.10,2013-03-07 19:55:00,
2013-03-07 15:10:00,31.8,30.0,30.28,SW,218,4.0,8.0,94,0.01,,,0.03,weatherlink.com 1.10,2013-03-07 20:10:00,
2013-03-07 15:25:00,31.8,31.0,30.29,West,264,3.0,8.0,95,0.01,,,0.03,weatherlink.com 1.10,2013-03-07 20:25:00,
2013-03-07 15:40:00,31.8,31.0,30.29,West,281,5.0,8.0,95,0.01,,,0.03,weatherlink.com 1.10,2013-03-07 20:40:00,
2013-03-07 15:55:00,31.8,31.0,30.29,SW,230,4.0,8.0,95,0.00,,,0.03,weatherlink.com 1.10,2013-03-07 20:55:00,
2013-03-07 16:10:00,31.7,31.0,30.30,WSW,248,3.0,7.0,95,0.00,,,0.03,weatherlink.com 1.10,2013-03-07 21:10:00,
2013-03-07 16:25:00,31.6,30.0,30.30,West,269,3.0,6.0,95,0.00,,,0.03,weatherlink.com 1.10,2013-03-07 21:25:00,
2013-03-07 16:40:00,31.4,30.0,30.30,NW,323,1.0,8.0,95,0.00,,,0.03,weatherlink.com 1.10,2013-03-07 21:40:00,
2013-03-07 16:55:00,31.4,30.0,30.30,SW,227,3.0,10.0,95,0.00,,,0.03,weatherlink.com 1.10,2013-03-07 21:55:00,
2013-03-07 17:10:00,31.3,30.0,30.30,SSW,193,4.0,5.0,95,0.00,,,0.03,weatherlink.com 1.10,2013-03-07 22:10:00,
2013-03-07 17:25:00,31.4,30.0,30.31,SW,220,7.0,10.0,95,0.00,,,0.03,weatherlink.com 1.10,2013-03-07 22:25:00,
2013-03-07 17:40:00,31.2,30.0,30.31,SW,221,4.0,6.0,95,0.00,,,0.03,weatherlink.com 1.10,2013-03-07 22:40:00,
2013-03-07 17:55:00,31.2,30.0,30.32,WSW,249,3.0,6.0,95,0.00,,,0.03,weatherlink.com 1.10,2013-03-07 22:55:00,
2013-03-07 18:10:00,31.2,30.0,30.32,WSW,250,4.0,7.0,96,0.00,,,0.03,weatherlink.com 1.10,2013-03-07 23:10:00,
2013-03-07 18:25:00,31.2,30.0,30.32,SW,232,4.0,9.0,96,0.00,,,0.03,weatherlink.com 1.10,2013-03-07 23:25:00,
2013-03-07 18:40:00,31.2,30.0,30.32,West,265,4.0,6.0,96,0.00,,,0.03,weatherlink.com 1.10,2013-03-07 23:40:00,
2013-03-07 18:55:00,31.2,30.0,30.32,West,267,3.0,6.0,96,0.00,,,0.03,weatherlink.com 1.10,2013-03-07 23:55:00,
2013-03-07 19:10:00,31.2,30.0,30.32,WSW,244,2.0,6.0,96,0.00,,,0.03,weatherlink.com 1.10,2013-03-08 00:10:00,
2013-03-07 19:25:00,31.2,30.0,30.32,West,259,3.0,6.0,96,0.00,,,0.03,weatherlink.com 1.10,2013-03-08 00:25:00,
2013-03-07 19:40:00,31.2,30.0,30.32,WSW,246,2.0,6.0,96,0.00,,,0.03,weatherlink.com 1.10,2013-03-08 00:40:00,
2013-03-07 19:55:00,31.1,30.0,30.32,West,261,2.0,5.0,96,0.00,,,0.03,weatherlink.com 1.10,2013-03-08 00:55:00,
2013-03-07 20:10:00,31.0,30.0,30.32,SW,236,3.0,6.0,96,0.00,,,0.03,weatherlink.com 1.10,2013-03-08 01:10:00,
2013-03-07 20:25:00,30.9,30.0,30.32,WSW,242,3.0,6.0,96,0.00,,,0.03,weatherlink.com 1.10,2013-03-08 01:25:00,
2013-03-07 20:55:00,30.7,30.0,30.31,West,273,4.0,6.0,95,0.00,,,0.03,weatherlink.com 1.10,2013-03-08 01:55:00,
2013-03-07 21:10:00,30.6,30.0,30.31,SW,221,2.0,7.0,96,0.00,,,0.03,weatherlink.com 1.10,2013-03-08 02:10:00,
2013-03-07 21:25:00,30.5,29.0,30.30,WSW,252,3.0,7.0,95,0.00,,,0.03,weatherlink.com 1.10,2013-03-08 02:25:00,
2013-03-07 21:40:00,30.5,29.0,30.30,West,264,4.0,7.0,95,0.00,,,0.03,weatherlink.com 1.10,2013-03-08 02:40:00,
2013-03-07 21:55:00,30.4,29.0,30.30,WSW,244,3.0,6.0,95,0.00,,,0.03,weatherlink.com 1.10,2013-03-08 02:55:00,
2013-03-07 22:10:00,30.3,29.0,30.30,WSW,250,5.0,7.0,95,0.00,,,0.03,weatherlink.com 1.10,2013-03-08 03:10:00,
2013-03-07 22:25:00,30.2,29.0,30.29,WSW,256,3.0,7.0,95,0.00,,,0.03,weatherlink.com 1.10,2013-03-08 03:25:00,
2013-03-07 22:40:00,30.1,29.0,30.29,West,268,3.0,6.0,95,0.00,,,0.03,weatherlink.com 1.10,2013-03-08 03:40:00,
2013-03-07 22:55:00,30.0,29.0,30.29,WSW,246,3.0,6.0,95,0.00,,,0.03,weatherlink.com 1.10,2013-03-08 03:55:00,
2013-03-07 23:10:00,29.9,29.0,30.29,WSW,252,1.0,4.0,95,0.00,,,0.03,weatherlink.com 1.10,2013-03-08 04:10:00,
2013-03-07 23:25:00,29.9,29.0,30.29,WSW,238,2.0,5.0,95,0.00,,,0.03,weatherlink.com 1.10,2013-03-08 04:25:00,
2013-03-07 23:40:00,29.8,29.0,30.29,SW,229,2.0,5.0,95,0.00,,,0.03,weatherlink.com 1.10,2013-03-08 04:40:00,
2013-03-07 23:55:00,29.9,29.0,30.29,WSW,257,3.0,7.0,95,0.00,,,0.03,weatherlink.com 1.10,2013-03-08 04:55:00,